Concordia, KS

8:32 PM CDT on September 27, 2016 (GMT -0500)
Blosser Municipal

Weather History for KCNK - November, 2014

Change the Weather History Date:

Saturday, November 22, 2014

  Actual Average Record
Temperature  
Mean Temperature 50 °F 38 °F  
Max Temperature 63 °F 48 °F 68 °F (1974)
Min Temperature 37 °F 28 °F -4 °F (1929)
Degree Days  
Heating Degree Days 15 27  
Month to date heating degree days 619 467  
Since 1 July heating degree days 950 858  
Cooling Degree Days 0 0  
Month to date cooling degree days 0 0  
Year to date cooling degree days 1368 1348  
Moisture  
Dew Point 45 °F    
Average Humidity 83    
Maximum Humidity 100    
Minimum Humidity 65    
Precipitation  
Precipitation 0.00 in 0.03 in 0.53 in (1999)
Month to date precipitation 0.08 0.85  
Year to date precipitation 26.43 26.78  
Snow  
Snow 0.00 in 0.10 in 3.30 in (1991)
Month to date snowfall 1.1 1.5  
Year to date snowfall 18.0 15.4  
Since 1 July snowfall 1.1 1.7  
Snow Depth 0.00 in    
Sea Level Pressure  
Sea Level Pressure 29.80 in    
Wind  
Wind Speed 14 mph (SSW)    
Max Wind Speed 32 mph    
Max Gust Speed 39 mph    
Visibility 6 miles    
Events Fog    
T = Trace of Precipitation, MM = Missing Value Source: NWS Daily Summary

Daily Weather History Graph

Daily Weather History Graph

Search for Another Location

Airport or City:

Trip Planner

Search our weather history database for the weather conditions in past years. The results will help you decide how hot, cold, wet, or windy it might be!

Date:

Astronomy

Nov. 22, 2014 Rise Set
Actual Time 7:22 AM CST 5:10 PM CST
Civil Twilight 6:53 AM CST 5:39 PM CST
Nautical Twilight 6:20 AM CST 6:12 PM CST
Astronomical Twilight 5:48 AM CST 6:44 PM CST
Moon 7:20 AM CST (11/22) 5:42 PM CST (11/22)
Length of Visible Light 10h 46m
Length of Day
9h 48m
New Moon, 0% of the Moon is Illuminated
Nov 22
New Moon
Nov 29
First Quarter
Dec 6
Full
Dec 14
Last Quarter
Dec 21
New

Hourly Weather History & Observations

Time (CST) Temp. Windchill Dew Point Humidity Pressure Visibility Wind Dir Wind Speed Gust Speed Precip Events Conditions
12:22 AM 37.9 °F 32.7 °F 37.9 °F 100% 30.00 in 4.0 mi SSW 6.9 mph - N/A   Overcast
12:55 AM 37.9 °F 31.5 °F 37.9 °F 100% 30.01 in 4.0 mi South 9.2 mph - N/A   Overcast
1:40 AM 37.9 °F 33.5 °F 37.9 °F 100% 29.98 in 4.0 mi SSW 5.8 mph - N/A   Overcast
1:48 AM 37.9 °F 32.7 °F 37.9 °F 100% 29.98 in 4.0 mi SSW 6.9 mph - N/A   Overcast
1:55 AM 39.0 °F 32.3 °F 37.9 °F 96% 30.00 in 4.0 mi SSW 10.4 mph - N/A   Overcast
2:10 AM 37.9 °F 31.5 °F 37.9 °F 100% 29.97 in 2.0 mi SSW 9.2 mph - N/A   Overcast
2:19 AM 37.9 °F 32.1 °F 37.9 °F 100% 29.97 in 1.5 mi SSW 8.1 mph - N/A   Overcast
2:33 AM 39.0 °F 31.8 °F 39.0 °F 100% 29.97 in 1.2 mi SSW 11.5 mph - N/A   Overcast
2:55 AM 39.0 °F 32.3 °F 39.0 °F 100% 29.98 in 1.0 mi SSW 10.4 mph - N/A   Overcast
3:17 AM 37.9 °F 32.1 °F 37.9 °F 100% 29.97 in 0.8 mi SSW 8.1 mph - N/A   Overcast
3:55 AM 37.9 °F 30.5 °F 37.9 °F 100% 29.97 in 0.5 mi South 11.5 mph - N/A Fog Fog
4:55 AM 37.9 °F 30.5 °F 37.9 °F 100% 29.96 in 0.5 mi SSW 11.5 mph - N/A Fog Fog
5:20 AM 37.9 °F 30.5 °F 37.9 °F 100% 29.92 in 1.0 mi SSW 11.5 mph - N/A   Overcast
5:36 AM 37.9 °F 30.5 °F 37.9 °F 100% 29.92 in 0.8 mi SSW 11.5 mph - N/A   Overcast
5:55 AM 37.9 °F 30.9 °F 37.9 °F 100% 29.94 in 0.8 mi SSW 10.4 mph - N/A   Overcast
6:55 AM 37.9 °F 32.7 °F 37.9 °F 100% 29.93 in 0.5 mi SW 6.9 mph - N/A Fog Fog
7:55 AM 37.9 °F 31.5 °F 37.9 °F 100% 29.91 in 0.2 mi SSW 9.2 mph - N/A Fog Fog
8:55 AM 39.0 °F 32.3 °F 39.0 °F 100% 29.91 in 0.2 mi SSW 10.4 mph - N/A Fog Fog
9:11 AM 39.0 °F 32.8 °F 39.0 °F 100% 29.88 in 1.0 mi South 9.2 mph - N/A   Overcast
9:34 AM 39.0 °F 30.6 °F 39.0 °F 100% 29.88 in 1.8 mi South 15.0 mph 18.4 mph N/A   Overcast
9:46 AM 39.9 °F 32.9 °F 39.9 °F 100% 29.88 in 2.0 mi South 11.5 mph - N/A   Overcast
9:55 AM 39.9 °F 31.8 °F 39.9 °F 100% 29.91 in 2.0 mi South 15.0 mph - N/A   Overcast
10:06 AM 41.0 °F 34.7 °F 41.0 °F 100% 29.87 in 3.0 mi South 10.4 mph - N/A   Overcast
10:36 AM 46.0 °F 39.9 °F 43.0 °F 89% 29.85 in 7.0 mi South 13.8 mph - N/A   Partly Cloudy
10:55 AM 48.0 °F - 44.1 °F 86% 29.84 in 7.0 mi SSW 9.2 mph - N/A   Clear
11:55 AM 54.0 °F - 46.0 °F 75% 29.80 in 10.0 mi SSW 16.1 mph - N/A   Clear
12:55 PM 57.9 °F - 46.9 °F 67% 29.75 in 10.0 mi SSW 13.8 mph - N/A   Clear
1:55 PM 62.1 °F - 50.0 °F 65% 29.70 in 10.0 mi South 12.7 mph 21.9 mph N/A   Clear
2:55 PM 63.0 °F - 51.1 °F 65% 29.68 in 10.0 mi South 16.1 mph 25.3 mph N/A   Clear
3:55 PM 59.0 °F - 52.0 °F 78% 29.65 in 10.0 mi South 18.4 mph 26.5 mph N/A   Partly Cloudy
4:55 PM 57.0 °F - 53.1 °F 87% 29.62 in 10.0 mi South 15.0 mph 23.0 mph N/A   Partly Cloudy
5:14 PM 57.0 °F - 53.1 °F 87% 29.62 in 10.0 mi SSE 12.7 mph 25.3 mph N/A   Mostly Cloudy
5:55 PM 57.0 °F - 54.0 °F 89% 29.61 in 10.0 mi South 20.7 mph 26.5 mph N/A   Overcast
6:55 PM 57.0 °F - 54.0 °F 89% 29.61 in 10.0 mi South 18.4 mph 27.6 mph N/A   Overcast
7:14 PM 57.0 °F - 54.0 °F 89% 29.61 in 10.0 mi South 19.6 mph 27.6 mph N/A   Overcast
7:45 PM 57.0 °F - 54.0 °F 89% 29.62 in 10.0 mi South 12.7 mph - N/A   Overcast
7:55 PM 57.0 °F - 54.0 °F 89% 29.62 in 10.0 mi South 12.7 mph 23.0 mph N/A   Overcast
8:55 PM 57.9 °F - 54.0 °F 87% 29.59 in 10.0 mi SSW 18.4 mph 27.6 mph N/A   Overcast
9:55 PM 57.9 °F - 54.0 °F 87% 29.58 in 10.0 mi SSW 18.4 mph 27.6 mph N/A   Overcast
10:55 PM 55.9 °F - 53.1 °F 90% 29.56 in 10.0 mi South 18.4 mph 29.9 mph N/A   Overcast
11:21 PM 55.9 °F - 53.1 °F 90% 29.55 in 10.0 mi South 21.9 mph 28.8 mph N/A   Overcast
11:39 PM 55.9 °F - 52.0 °F 87% 29.55 in 10.0 mi South 23.0 mph 33.4 mph N/A   Overcast
11:55 PM 55.9 °F - 52.0 °F 87% 29.53 in 10.0 mi South 21.9 mph 31.1 mph N/A   Overcast